Regional Weather Roundup
Issued by NWS Bismarck, ND

Home | Current Version | Previous Version | Text Only | Print | Product List | Glossary On
Versions: 1 2 3 4 5 6 7 8 9 10 11 12 13 14 15 16 17 18 19 20 21 22 23 24 25 26 27 28 29 30 31 32 33 34 35 36 37 38 39 40 41 42 43 44 45 46 47 48 49 50
000
ASUS43 KBIS 030201
RWRBIS

NWR BROADCAST TEXT
NATIONAL WEATHER SERVICE BISMARCK ND
900 PM CDT SAT MAY 02 2015

NOTE: "FAIR" INDICATES FEW OR NO CLOUDS BELOW 12,000 FEET WITH NO
SIGNIFICANT WEATHER AND/OR OBSTRUCTIONS TO VISIBILITY.


CITY           SKY/WX    TMP DP  RH WIND       PRES   REMARKS
WILLISTON      MOCLDY    65  35  33 N17       29.71R
MINOT          PTCLDY    64  33  31 NW10      29.65R
MINOT AFB      PTCLDY    66  34  30 N12       29.65R
BISMARCK       MOCLDY    72  31  22 N3        29.64R
DICKINSON      PTCLDY    67  28  23 N7        29.68R
GARRISON         N/A     62  37  39 N7        29.65R
HETTINGER ARPT PTCLDY    61  30  31 N9        29.71R
JAMESTOWN      MOCLDY    70  36  28 W6        29.59R
CARRINGTON     FAIR      70  36  28 N12       29.62R
HAZEN          FAIR      64  36  34 NE7       29.66R
OAKES            N/A     68  52  56 S8        29.59S
$$

CITY           SKY/WX    TMP DP  RH WIND       PRES   REMARKS
GRAND FORKS    MOCLDY    66  47  50 SE12      29.55S
GRAND FORKS AF MOCLDY    65  47  51 SE10      29.55S
DEVILS LAKE    MOCLDY    68  34  28 N13       29.60R
FARGO          CLOUDY    67  48  50 SE21G26   29.58F
CANDO          FAIR      66  37  34 N10       29.63R
CAVALIER       FAIR      70  45  40 SW9G20    29.57R
GRAFTON        FAIR      66  45  45 S15G21    29.56R
GWINNER        CLEAR     72  45  37 S12G18    29.60S
LANGDON        FAIR      68  37  32 N16       29.61R
WALHALLA       FAIR      66  45  45 N18       29.59R
$$

CITY           SKY/WX    TMP DP  RH WIND       PRES   REMARKS
ABERDEEN       PTCLDY    78  39  24 S10       29.60R
MOBRIDGE       CLOUDY    69  33  26 N9        29.61R
BUFFALO          N/A     70  29  21 NW3       29.66R
RAPID CITY     MOCLDY    64  32  30 N8        29.73R
GLASGOW        PTCLDY    56  34  43 N20G25    29.80R
SIDNEY         CLOUDY    66  34  30 NW17      29.71R
WOLF POINT     MOCLDY    62  36  37 N22       29.76R
GLENDIVE       MOCLDY    66  32  28 N10       29.72R
MILES CITY     CLOUDY    71  31  22 N15       29.71R
BAKER          CLOUDY    67  33  28 N13       29.72R
$$

CITY           SKY/WX    TMP DP  RH WIND       PRES   REMARKS
BILLINGS       CLOUDY    66  28  24 E7        29.77R
GREAT FALLS    PTCLDY    55  33  43 NE16      29.84R
$$




USA.gov is the U.S. government's official web portal to all federal, state and local government web resources and services.